Weather in Gaza

Palestinian Territory     31°30′54″N   34°27′31″E
temp.,
°C
wind,
m/s
gust,
m/s
humid.,
%
clouds,
%
prec.,
mm/h
press.,
hPa
HPBL,
m
12 april, mon
mon1200:00+14w34620 0.0 1020279
03:00+13w44642 0.0 1019295
06:00+13wsw336562 0.0 1019260
09:00+15wsw445339 0.1 10201419
12:00+17wnw55490 0.0 10201353
15:00+17wnw55500 0.0 10191133
18:00+16nw55540 0.0 10191009
21:00+14n34590 0.0 1020278
13 april, tue
tue1300:00+13n22630 0.0 1020221
03:00+12ne22660 0.0 1019205
06:00+11se22700 0.0 102053
09:00+15e12560 0.0 1021709
12:00+18nnw54440 0.0 10201108
15:00+18n76475 0.0 1019874
18:00+17n77507 0.0 1019719
21:00+15nne5857100 0.0 1020332
14 april, wed
wed1400:00+13ne456271 0.0 1020178
03:00+12ne346688 0.0 1019122
06:00+12ne33670 0.0 101988
09:00+17nne34530 0.0 1020488
12:00+21nne23306 0.0 1018736
15:00+20nnw76433 0.0 1017463
18:00+19n77540 0.0 1016407
21:00+16nne58665 0.0 1017194
15 april, thu
thu1500:00+15nne446899 0.0 101798
03:00+14nne22695 0.0 101657
06:00+14ene12695 0.0 101641
09:00+19nnw11465 0.0 1016217
12:00+22nnw43450 0.0 1015522
15:00+23n66450 0.0 1015471
18:00+20n67550 0.0 1014281
21:00+17n46725 0.0 1015126
16 april, fri
fri1600:00+17nne33681 0.0 101543
03:00+16ene22645 0.0 101430
06:00+16nne22615 0.0 101327
09:00+21n33485 0.0 1014269
12:00+24nnw65425 0.0 1015512
15:00+23n774393 0.0 1014431
18:00+20n7957100 0.0 1014298
21:00+18nne5969100 0.0 1014176